AGROMETEOROLOŠKI PORTAL

vinorodna pokrajina

Temelj dobrega kmetovanja

Pregled podatkov za lokacijo Mali Podlog (Krško), meteorološka postaja 514428

Pregled senzorjev na lokaciji

ID Ime Zadnja
vrednost
Datum in čas
meritve
(lokalni čas)
Tip
senzorja
6665 Omočenost lista (1,5 m) (U) 0 U 1.2.2023 12:30 A730WET
6668 Padavine (mm) 0 mm 1.2.2023 12:30 Generic 0.2 mm
6695 Relativna zračna vlaga (2 m) (%RH) 57 %RH 1.2.2023 12:30 50YA
6953 Temperatura tal (30 cm) (°C) 2 °C 1.2.2023 12:30 ST2
6694 Temperatura (2 m) (°C) 7,4 °C 1.2.2023 12:30 50YA
6701 Hitrost vetra (3 m) (km/h) 15 km/h 1.2.2023 12:30 Generic 200 km/h

Pregled podatkov zadnjih 24 ur

Zap.
št.
Datum in čas
(lokalni čas)
Mali Podlog (Krško)
Omočenost
lista
(1,5
m)
Padavine Relativna
zračna
vlaga
(2
m)
Temperatura
tal
(30
cm)
Temperatura
(2
m)
Hitrost
vetra
(3
m)
1 1.2.2023 12:30 0 0 57,1 2 7,4 14,6
2 1.2.2023 12:00 0 0 57,9 1,5 6,8 13,3
3 1.2.2023 11:30 0 0 58,9 1,2 6,2 9,5
4 1.2.2023 11:00 0 0 61,7 1,2 4,9 9,3
5 1.2.2023 10:30 0 0 64,3 1,2 3,8 10,8
6 1.2.2023 10:00 0 0 68,4 1,2 2,6 11,1
7 1.2.2023 09:30 0 0 71,5 1,2 1,6 8,6
8 1.2.2023 09:00 0 0 74,7 1,2 0,3 8,3
9 1.2.2023 08:30 0 0 78 1,2 -0,8 5,9
10 1.2.2023 08:00 0 0 77,5 1,3 -1 6,5
11 1.2.2023 07:30 0 0 76,1 1,3 -0,9 6,7
12 1.2.2023 07:00 0 0 75,3 1,3 -0,7 9,2
13 1.2.2023 06:30 0 0 76,8 1,3 -1 8,6
14 1.2.2023 06:00 0 0 75 1,4 -0,7 10
15 1.2.2023 05:30 0 0 77,2 1,4 -1 7,4
16 1.2.2023 05:00 0 0 79,2 1,4 -1,2 7
17 1.2.2023 04:30 0 0 82,5 1,5 -1,6 7,5
18 1.2.2023 04:00 0 0 82,8 1,5 -1,9 4
19 1.2.2023 03:30 1 0 86,2 1,5 -2,4 4,9
20 1.2.2023 03:00 1 0 84,8 1,5 -2,1 5,1
21 1.2.2023 02:30 1 0 83,3 1,6 -1,8 3,1
22 1.2.2023 02:00 1 0 83,7 1,6 -1,6 3,7
23 1.2.2023 01:30 2 0 83,1 1,6 -1,2 5,2
24 1.2.2023 01:00 3 0 84,6 1,7 -1,4 4,7
25 1.2.2023 00:30 1 0 86,2 1,7 -1,7 2
26 1.2.2023 00:00 0 0 81,6 1,7 -0,8 5,5
27 31.1.2023 23:30 0 0 80,7 1,8 -0,6 6,5
28 31.1.2023 23:00 0 0 84 1,8 -1,2 3,4
29 31.1.2023 22:30 0 0 75,8 1,9 0,4 6,7
30 31.1.2023 22:00 0 0 82,7 1,9 -0,6 5,2
31 31.1.2023 21:30 0 0 82,4 2 -0,6 4,6
32 31.1.2023 21:00 0 0 82,7 2,1 -0,2 2,6
33 31.1.2023 20:30 0 0 79,3 2,2 0,8 4,7
34 31.1.2023 20:00 0 0 79,7 2,4 0,8 3,3
35 31.1.2023 19:30 0 0 78,2 2,6 1,1 2
36 31.1.2023 19:00 0 0 69,2 2,7 2,7 4,1
37 31.1.2023 18:30 0 0 63,2 3 3,2 3,2
38 31.1.2023 18:00 0 0 59,9 3,2 4,7 3,5
39 31.1.2023 17:30 0 0 54,3 3,4 6,4 2,1
40 31.1.2023 17:00 0 0 53,9 3,4 7,6 2,2
41 31.1.2023 16:30 0 0 43,9 3,4 9,2 2,7
42 31.1.2023 16:00 0 0 35,7 3,4 9,3 5,5
43 31.1.2023 15:30 0 0 34,6 3,4 9,9 8,2
44 31.1.2023 15:00 0 0 36,9 3,4 10 8,2
45 31.1.2023 14:30 0 0 37,6 3,2 9,7 8,2
46 31.1.2023 14:00 0 0 39,2 2,8 9,2 8,6
47 31.1.2023 13:30 0 0 49,3 2,1 8,4 6,3
48 31.1.2023 13:00 0 0 50,8 1,5 7,7 6,6